map of YMS home
YMS - Airport
Location
City:  Yurimaguas, Loreto, Perú
Name:Moisés Benzaquén Rengifo Airport
ICAO:SPMS
IATA:YMS

Details
Type:Airport (Aerodrome, Airfield)
Use:Public/Civil
Latitude:5°53'37"S (-5.893610)
Longitude:76°07'05"W (-76.118055)
Elevation:587 ft (179 m)
Variation:3.92°W (WMM2015 magnetic declination)
-0.17° annual change
Runways:1
Longest:5906 × 98 ft (1800 × 30 m), paved

Time
Time Zone:UTC-5
Local Time:

Weather
METAR:SPMS 192300Z 36003KT 9999 FEW015 SCT120 30/23 Q1009 RMK BIRD HAZARD RWY 09/27 PP000
TAF:SPMS 191700Z 1918/2018 01003KT 9999 SCT015 SCT100 TX34/1919Z TN22/2011Z
TEMPO 1923/2003 08008KT 6000 -SHRA BKN015 FEW025TCU
BECMG 2003/2005 VRB02KT BKN012 SCT100
TEMPO 2009/2013 24003KT 3000 BR OVC008

Related Locations
Nearby:
Farthest:RDN: 12388 mi / 19937 km
Redang [Redang Airport], Redang Island (Pulau Redang), 11, MY

Find:

   beyond  
but within

Other Information
Maps:
NOTAMs:
Links:
Sources:

  
flag of Perú
flag of Loreto
  

Sectional Chart

Flight Planning
at skyvector.com

Satellite Image

Google Maps Satellite view

 

Copyright © 2004-2017 Karl L. Swartz. All rights reserved.
The Great Circle Mapper name and logo are trademarks of the Great Circle Mapper.
All other trademarks mentioned herein belong to their respective owners.
Please see credits for attibutions and further copyright information.

  Follow gcmap on Facebook Follow gcmap on Twitter Follow gcmap on Google+ GCmap on LinkedIn

hCard Microformat

Geo Microformat